[[{"header":{"parameterUnit":"m.s-1","parameterCategory":1,"la1":30.2991,"la2":30.254,"lo1":-89.0895,"lo2":-89.0444,"dy":0.0017,"dx":0.0017,"nx":28,"ny":28,"refTime":"2023-10-28T03:00:00:Z","depth":0,"parameterNumber":2,"parameterNumberName":"U-component_of_WINDS"},"data":[0,0,0,0,0,0,0,0,0,0,0,0,0,0,0,0,0,0,0,0,0,0,0,0,0,0,0,0,0,0,0,0,0,0,0,0,0,0,0,0,0,0,0,0,0,0,0,0,0,0,0,0,0,0,0,0,0,0,-2.7698,-2.7699,0,-2.7806,-2.7807,-2.7808,-2.7826,-2.7825,-2.7824,-2.7823,-2.7931,-2.7934,-2.7938,0,0,0,0,0,0,0,0,0,0,0,0,0,-2.7505,-2.7509,-2.7698,-2.7699,-2.7701,-2.7805,-2.7807,-2.7808,-2.7826,-2.7825,-2.7823,-2.7822,-2.793,-2.7934,-2.7938,0,0,0,0,0,0,0,0,0,0,0,0,0,-2.7599,-2.751,-2.7698,-2.7722,-2.7725,-2.7805,-2.7807,-2.7809,-2.7826,-2.7825,-2.7823,-2.7822,-2.7928,-2.7934,-2.7939,-2.8002,0,0,-2.7956,-2.7959,0,0,0,0,0,0,0,0,-2.7593,-2.7606,-2.7717,-2.772,-2.7724,-2.7801,-2.7779,-2.7873,-2.7826,-2.7788,-2.7823,-2.7821,-2.7888,-2.7897,-2.7921,-2.8007,-2.8011,-2.7957,-2.796,-2.7963,-2.7964,0,0,0,0,0,0,0,-2.7587,-2.7601,-2.774,-2.7719,-2.7723,-2.7727,-2.7739,-2.7797,-2.7844,-2.7791,-2.7792,-2.7805,-2.789,-2.7915,-2.7923,-2.8013,-2.7957,-2.7962,-2.7965,-2.7967,-2.8156,-2.8158,0,0,0,0,0,0,-2.7576,-2.7596,-2.7737,-2.7744,-2.7654,-2.7731,-2.7745,-2.7778,-2.7844,-2.7853,-2.7806,-2.7805,-2.7906,-2.7917,-2.7927,-2.8005,-2.7963,-2.7968,-2.7971,-2.8155,-2.8157,-2.8159,0,0,0,0,0,0,-2.7572,-2.7589,-2.7733,-2.767,-2.7689,-2.7736,-2.7773,-2.778,-2.7805,-2.7856,-2.7864,-2.7823,-2.7905,-2.7919,-2.7983,-2.8008,-2.797,-2.7975,-2.8153,-2.8155,-2.8158,-2.816,0,0,0,0,0,0,-2.7566,-2.7587,-2.7612,-2.7671,-2.7692,-2.7788,-2.7775,-2.7784,-2.7815,-2.7815,-2.7873,-2.7882,-2.7905,-2.7975,-2.7989,-2.8016,-2.798,-2.8151,-2.8154,-2.8157,-2.8158,-2.8162,-2.8166,0,0,0,0,0,-2.756,-2.7608,-2.7613,-2.763,-2.7724,-2.7789,-2.7801,-2.7828,-2.7817,-2.7842,-2.7874,-2.788,-2.8004,-2.7981,-2.7997,-2.8026,-2.8149,-2.8153,-2.8157,-2.8156,-2.8161,-2.8166,0,0,0,0,0,0,-2.7549,-2.7616,-2.7622,-2.7691,-2.7734,-2.7792,-2.7824,-2.7833,-2.788,-2.7878,-2.7909,-2.7922,-2.7984,-2.8012,-2.7985,-2.809,-2.8076,-2.8083,-2.807,-2.8075,-2.8079,-2.8071,-2.7984,0,0,0,0,0,-2.7555,-2.7603,-2.7658,-2.7714,-2.7735,-2.7776,-2.7805,-2.7822,-2.7868,-2.7886,-2.7923,-2.7967,-2.8016,-2.8047,-2.8095,-2.8163,-2.8175,-2.819,-2.8194,-2.8197,-2.8203,-2.824,-2.8247,-2.8171,-2.8171,-2.8171,0,0,-2.7568,-2.761,-2.7638,-2.7713,-2.7748,-2.7797,-2.7791,-2.7842,-2.7878,-2.7894,-2.7957,-2.7986,-2.8036,-2.8102,-2.8133,-2.8127,-2.8227,-2.8202,-2.8204,-2.8208,-2.8245,-2.8252,-2.8258,-2.8173,-2.8173,-2.8172,0,0,-2.7615,-2.7652,-2.7702,-2.7738,-2.7792,-2.7819,-2.7831,-2.7888,-2.7908,-2.7972,-2.7984,-2.8028,-2.8111,-2.8147,-2.8176,-2.8238,-2.8244,-2.8252,-2.8273,-2.8309,-2.8315,-2.8321,-2.8342,-2.8349,-2.8258,-2.8258,-2.8258,0,-2.7623,-2.7697,-2.7726,-2.7777,-2.7809,-2.7827,-2.7878,-2.7911,-2.7978,-2.7999,-2.7992,-2.8098,-2.8133,-2.8208,-2.8223,-2.8246,-2.826,-2.8245,-2.8312,-2.8318,-2.8323,-2.8344,-2.8352,-2.8258,-2.8258,-2.8258,-2.8258,0,-2.7704,-2.7755,-2.7789,-2.7853,-2.789,-2.794,-2.7977,-2.801,-2.8024,-2.8052,-2.8117,-2.816,-2.8217,-2.8236,-2.8251,-2.8313,-2.8308,-2.8306,-2.8292,-2.8331,-2.8351,-2.8359,-2.8259,-2.8259,-2.8259,-2.8259,0,0,-2.7746,-2.7827,-2.7839,-2.7869,-2.793,-2.797,-2.8022,-2.8078,-2.8105,-2.8151,-2.8195,-2.8266,-2.8265,-2.8298,-2.8316,-2.8348,-2.8394,-2.8343,-2.8345,-2.835,-2.8465,-2.8464,-2.8473,-2.8399,-2.8401,-2.8402,-2.846,0,-2.7799,-2.7891,-2.792,-2.7997,-2.8044,-2.8062,-2.8107,-2.815,-2.8177,-2.8221,-2.8251,-2.83,-2.8296,-2.8316,-2.8349,-2.8381,-2.8417,-2.8378,-2.8439,-2.8441,-2.8424,-2.8484,-2.8483,-2.8536,-2.8468,-2.8469,-2.847,0,-2.7873,-2.7921,-2.8003,-2.8059,-2.808,-2.812,-2.8174,-2.8216,-2.8264,-2.8282,-2.832,-2.8336,-2.839,-2.8374,-2.8448,-2.8421,-2.8448,-2.8468,-2.8471,-2.8476,-2.8457,-2.8489,-2.8553,-2.856,-2.8483,-2.8482,-2.8481,0,-2.7894,-2.7979,-2.8039,-2.8064,-2.8132,-2.8159,-2.8188,-2.8236,-2.8268,-2.8315,-2.8336,-2.8389,-2.8418,-2.8458,-2.8488,-2.8474,-2.856,-2.8546,-2.8575,-2.8574,-2.8591,-2.8589,-2.8659,-2.8611,-2.8611,-2.861,-2.861,0,-2.795,-2.7999,-2.805,-2.8086,-2.8142,-2.8175,-2.8229,-2.8259,-2.8301,-2.8343,-2.8363,-2.8402,-2.844,-2.8485,-2.8509,-2.8566,-2.8579,-2.8595,-2.86,-2.8592,-2.859,-2.8609,-2.8606,-2.8613,-2.8612,-2.8612,-2.8611,0,-2.7982,-2.8018,-2.8085,-2.8143,-2.8159,-2.8197,-2.8247,-2.8284,-2.8312,-2.8366,-2.8381,-2.8426,-2.8479,-2.8514,-2.8582,-2.8598,-2.866,-2.8665,-2.8644,-2.8646,-2.8673,-2.8669,-2.8756,-2.8768,-2.8713,-2.8713,-2.8714,0,-2.8015,-2.8053,-2.8116,-2.8146,-2.8176,-2.8224,-2.8257,-2.8291,-2.8325,-2.8384,-2.8413,-2.8468,-2.8513,-2.8598,-2.8636,-2.8688,-2.8694,-2.8721,-2.8702,-2.8693,-2.8693,-2.869,-2.8694,-2.8723,-2.8723,-2.8724,-2.8724,0,-2.8068,-2.8084,-2.8131,-2.8185,-2.8225,-2.8269,-2.8312,-2.8336,-2.8377,-2.8414,-2.847,-2.8505,-2.8575,-2.8629,-2.8685,-2.8715,-2.8726,-2.873,-2.8739,-2.8731,-2.8716,-2.8724,-2.8651,-2.8728,-2.8727,-2.8727,-2.8727,-2.8727,-2.8101,-2.8135,-2.8185,-2.8237,-2.8274,-2.8315,-2.8352,-2.8386,-2.8433,-2.8492,-2.851,-2.8567,-2.8615,-2.8692,-2.8723,-2.8768,-2.8765,-2.8778,-2.8781,-2.8784,-2.8784,-2.8711,-2.8778,-2.8778,-2.8778,-2.8778,-2.8778,0,-2.8154,-2.8187,-2.8235,-2.8296,-2.8337,-2.8346,-2.8395,-2.8429,-2.8479,-2.8524,-2.8568,-2.8632,-2.8685,-2.8728,-2.8782,-2.881,-2.8817,-2.8823,-2.8821,-2.8827,-2.8784,-2.877,-2.8817,-2.8817,-2.8817,-2.8817,-2.8817,-2.8817,-2.8186,-2.8246,-2.8268,-2.8345,-2.8378,-2.8435,-2.8462,-2.85,-2.8536,-2.8606,-2.865,-2.8678,-2.8722,-2.878,-2.8829,-2.8841,-2.8859,-2.8864,-2.8876,-2.8835,-2.883,-2.8826,-2.8813,-2.8868,-2.8868,-2.8916,-2.8916,-2.8916]},{"header":{"parameterUnit":"m.s-1","parameterCategory":1,"la1":30.2991,"la2":30.254,"lo1":-89.0895,"lo2":-89.0444,"dy":0.0017,"dx":0.0017,"nx":28,"ny":28,"refTime":"2023-10-28T03:00:00:Z","depth":0,"parameterNumber":3,"parameterNumberName":"V-component_of_WINDS"},"data":[0,0,0,0,0,0,0,0,0,0,0,0,0,0,0,0,0,0,0,0,0,0,0,0,0,0,0,0,0,0,0,0,0,0,0,0,0,0,0,0,0,0,0,0,0,0,0,0,0,0,0,0,0,0,0,0,0,0,1.0832,1.0833,0,1.0978,1.098,1.0981,1.1056,1.1056,1.1056,1.1056,1.1203,1.1207,1.121,0,0,0,0,0,0,0,0,0,0,0,0,0,1.0616,1.062,1.0832,1.0833,1.0835,1.0978,1.098,1.0982,1.1056,1.1056,1.1056,1.1056,1.1202,1.1206,1.1211,0,0,0,0,0,0,0,0,0,0,0,0,0,1.0731,1.0621,1.0831,1.0889,1.0896,1.0977,1.098,1.0982,1.1056,1.1056,1.1056,1.1056,1.12,1.1206,1.1211,1.1245,0,0,1.1229,1.1231,0,0,0,0,0,0,0,0,1.0724,1.0739,1.0879,1.0886,1.0893,1.0999,1.0958,1.107,1.1056,1.0995,1.1056,1.1056,1.1135,1.1146,1.1173,1.1252,1.1258,1.1229,1.1233,1.1235,1.1237,0,0,0,0,0,0,0,1.0716,1.0733,1.0889,1.0881,1.089,1.0908,1.0925,1.0979,1.1062,1.1,1.1006,1.1023,1.1138,1.1167,1.1177,1.126,1.1229,1.1234,1.1238,1.124,1.1377,1.1378,0,0,0,0,0,0,1.0699,1.0726,1.0885,1.0894,1.0807,1.0912,1.093,1.0965,1.1062,1.1077,1.1022,1.1026,1.1157,1.117,1.1182,1.1231,1.1235,1.1241,1.1244,1.1377,1.1377,1.1378,0,0,0,0,0,0,1.0694,1.0713,1.0879,1.0811,1.0834,1.0916,1.0954,1.0968,1.0996,1.1079,1.1094,1.1036,1.1158,1.1174,1.123,1.1237,1.1243,1.1249,1.1377,1.1377,1.1377,1.1325,0,0,0,0,0,0,1.0688,1.071,1.0724,1.0811,1.0837,1.0924,1.0954,1.097,1.1006,1.1012,1.1096,1.111,1.1159,1.1221,1.1235,1.1245,1.1253,1.1377,1.1377,1.1377,1.1327,1.1324,1.1321,0,0,0,0,0,1.068,1.0702,1.0724,1.0743,1.0856,1.0924,1.0939,1.0996,1.1007,1.1021,1.1075,1.1107,1.1233,1.1226,1.1243,1.1254,1.1377,1.1377,1.1377,1.1328,1.1324,1.1321,0,0,0,0,0,0,1.0611,1.0714,1.074,1.0791,1.0848,1.0936,1.0956,1.099,1.1044,1.1047,1.1115,1.1134,1.1183,1.1224,1.1214,1.1293,1.1308,1.1312,1.1265,1.1262,1.1259,1.1249,1.1258,0,0,0,0,0,1.0602,1.0649,1.0736,1.0773,1.0801,1.0873,1.0905,1.0945,1.1006,1.1031,1.1088,1.1146,1.12,1.1233,1.1286,1.1333,1.1354,1.1349,1.1346,1.1344,1.1346,1.1377,1.1377,1.1379,1.1379,1.1379,0,0,1.0583,1.0646,1.0671,1.0761,1.081,1.0858,1.0893,1.0941,1.0978,1.1038,1.1095,1.1139,1.1208,1.1261,1.1286,1.1296,1.1351,1.1344,1.1341,1.1346,1.1378,1.1377,1.1377,1.1379,1.1379,1.1379,0,0,1.0574,1.0625,1.0663,1.0712,1.0787,1.0836,1.0845,1.0929,1.0961,1.102,1.1067,1.1111,1.12,1.1249,1.1285,1.1298,1.1331,1.1314,1.1299,1.1328,1.1328,1.1329,1.1336,1.1337,1.1316,1.1316,1.1316,0,1.0541,1.0616,1.0678,1.0725,1.0764,1.0822,1.0862,1.0906,1.0994,1.102,1.103,1.1146,1.1196,1.1262,1.1266,1.1293,1.1306,1.1304,1.1323,1.1324,1.1326,1.1333,1.1335,1.1313,1.1314,1.1314,1.1314,0,1.0573,1.0624,1.0645,1.0731,1.0772,1.0815,1.0884,1.0918,1.0955,1.1003,1.1063,1.1127,1.1195,1.1214,1.1248,1.1286,1.129,1.131,1.1327,1.1322,1.133,1.1333,1.131,1.1311,1.1311,1.1312,0,0,1.0523,1.0645,1.0652,1.0693,1.0781,1.0822,1.0868,1.0937,1.0966,1.1025,1.1066,1.1142,1.1164,1.1205,1.1246,1.1272,1.1282,1.129,1.1293,1.1288,1.1329,1.1314,1.1316,1.1304,1.1305,1.1305,1.1324,0,1.0528,1.0614,1.0673,1.0736,1.0786,1.0843,1.0884,1.0943,1.0989,1.1038,1.1089,1.1143,1.1165,1.1191,1.1219,1.1274,1.1291,1.1274,1.1344,1.1346,1.1326,1.132,1.1303,1.1318,1.1327,1.1328,1.1328,0,1.0545,1.0605,1.0673,1.076,1.0782,1.0818,1.0887,1.0933,1.1001,1.1034,1.1081,1.1125,1.1177,1.1189,1.1263,1.125,1.1282,1.1314,1.1316,1.1325,1.1337,1.1331,1.1324,1.1326,1.1333,1.1333,1.1333,0,1.0504,1.0602,1.0656,1.0689,1.079,1.0815,1.0858,1.0927,1.0965,1.1026,1.1052,1.1117,1.1153,1.1203,1.1263,1.1266,1.1332,1.1348,1.1361,1.1359,1.1372,1.1371,1.1372,1.1391,1.1391,1.1391,1.1391,0,1.0504,1.0544,1.064,1.0674,1.0721,1.0789,1.0834,1.0882,1.0944,1.0988,1.1042,1.1082,1.1159,1.1209,1.1256,1.1312,1.1327,1.1355,1.1367,1.1351,1.1348,1.1374,1.1375,1.1391,1.1391,1.1391,1.1391,0,1.0466,1.0532,1.0596,1.0688,1.0712,1.0743,1.0822,1.0857,1.0908,1.0964,1.0981,1.106,1.1122,1.1187,1.1271,1.1303,1.1358,1.1374,1.1335,1.1342,1.1352,1.1351,1.1371,1.1378,1.139,1.139,1.1389,0,1.0462,1.0495,1.0591,1.0626,1.0669,1.0723,1.0764,1.0832,1.0872,1.0955,1.0981,1.1047,1.1105,1.1202,1.1267,1.1332,1.1351,1.1354,1.1361,1.1345,1.1354,1.1352,1.1357,1.1351,1.1351,1.135,1.135,0,1.0449,1.0481,1.0538,1.0607,1.0655,1.0712,1.0771,1.0797,1.0877,1.0919,1.0985,1.1029,1.1117,1.1183,1.1257,1.1302,1.134,1.1347,1.1354,1.1339,1.1316,1.1331,1.1329,1.1347,1.1347,1.1347,1.1347,1.1347,1.043,1.0463,1.0537,1.06,1.0652,1.0707,1.0746,1.0803,1.0859,1.0936,1.0973,1.1039,1.111,1.1214,1.1258,1.1311,1.1322,1.1331,1.1334,1.1335,1.1333,1.1306,1.1325,1.1325,1.1325,1.1325,1.1325,0,1.0421,1.0473,1.0529,1.0612,1.0662,1.0695,1.0763,1.0802,1.086,1.0924,1.098,1.1057,1.1122,1.1193,1.1264,1.1293,1.1312,1.1309,1.1308,1.1318,1.1318,1.1306,1.1292,1.1292,1.1292,1.1292,1.1292,1.1292,1.0423,1.0482,1.0523,1.0609,1.066,1.0726,1.0763,1.0814,1.0866,1.095,1.1005,1.1052,1.1119,1.1195,1.1257,1.1277,1.1301,1.1293,1.1317,1.1315,1.1318,1.132,1.131,1.1297,1.1297,1.1314,1.1314,1.1314]}]]